AVA8576 SKBO-SKVP

Flight info

Callsign AVA8576
Flight time N/A
Altitude 34000
Route OSUSU4R GIKPU UQ120 DIBAM DCT UGOSA UGOSA3A
Aircraft A320/M-SDE3FGHIRWY/LB1

Departure

Time N/A
Airport El Dorado International Airport (SKBO)

Arrival

Time 2026-05-03 20:16
Airport Alfonso López Pumarejo Airport (SKVP)
Time Latitude Longitude Altitude Speed Heading
2026-05-03 20:15 10.40916 -73.25398 749 ft 151 kts 11°
2026-05-03 20:15 10.41946 -73.25209 652 ft 151 kts
2026-05-03 20:15 10.42977 -73.25034 507 ft 145 kts 10°
2026-05-03 20:15 10.43802 -73.24886 489 ft 81 kts
2026-05-03 20:16 10.44210 -73.24815 482 ft 53 kts 10°
2026-05-03 20:16 10.44404 -73.24801 484 ft 9 kts 13°
2026-05-03 20:16 10.44403 -73.24789 483 ft 2 kts 167°
2026-05-03 20:16 10.44364 -73.24793 490 ft 6 kts 181°
2026-05-03 20:17 10.44324 -73.24794 490 ft 7 kts 182°
2026-05-03 20:17 10.44256 -73.24806 483 ft 13 kts 193°
2026-05-03 20:17 10.44154 -73.24826 490 ft 17 kts 189°
2026-05-03 20:17 10.44019 -73.24848 483 ft 22 kts 190°
2026-05-03 20:18 10.43851 -73.24879 484 ft 27 kts 189°
2026-05-03 20:18 10.43659 -73.24912 494 ft 29 kts 190°
2026-05-03 20:18 10.43463 -73.24946 484 ft 24 kts 189°
2026-05-03 20:18 10.43389 -73.24952 491 ft 8 kts 159°
2026-05-03 20:19 10.43366 -73.24885 486 ft 12 kts 122°
2026-05-03 20:19 10.43329 -73.24866 485 ft 0 kts 115°
2026-05-03 20:19 10.43325 -73.24849 490 ft 3 kts 103°
2026-05-03 20:19 10.43324 -73.24843 490 ft 0 kts 102°